Location: Vancouver
(49.2500°N, 123.1330°W)
Time: 17:35:12
(UTC-07:00)

Transit 2A Rocket - Visible Passes

Search period start: 24 October 2014 00:00
Search period end: 02 November 2014 23:00
Orbit: 591 x 917 km, 66.7° (Epoch: 24 October)

Date Brightness Start Highest point End Pass type
(mag) Time Alt. Az. Time Alt. Az. Time Alt. Az.
24 Oct 6.1 19:41:42 10° WSW 19:45:51 36° NW 19:50:19 10° NNE visible
24 Oct 7.4 21:27:44 10° NW 21:29:59 13° NNW 21:30:59 13° N visible
25 Oct 5.3 18:59:34 10° SW 19:03:55 55° NW 19:08:39 10° NNE visible
25 Oct 7.2 20:44:48 10° WNW 20:47:42 16° NNW 20:50:22 11° N visible
26 Oct 6.9 20:02:02 10° W 20:05:30 21° NNW 20:09:12 10° NNE visible
26 Oct 7.6 21:48:53 10° NNW 21:49:41 11° N 21:49:41 11° N visible
27 Oct 6.5 19:19:28 10° W 19:23:23 28° NW 19:27:36 10° NNE visible
27 Oct 7.4 21:05:56 10° NW 21:07:46 12° NNW 21:09:01 11° N visible
28 Oct 5.9 18:37:08 10° WSW 18:41:22 40° NW 18:45:57 10° NNE visible
28 Oct 7.3 20:22:56 10° NW 20:25:26 14° NNW 20:28:02 10° NNE visible
29 Oct 7.1 19:40:03 10° WNW 19:43:09 17° NNW 19:46:26 10° NNE visible
29 Oct 7.6 21:26:42 10° NNW 21:27:34 11° N 21:27:34 11° N visible
30 Oct 6.7 18:57:19 10° W 19:00:57 22° NNW 19:04:50 10° NNE visible
30 Oct 7.4 20:44:03 10° NNW 20:45:34 11° N 20:46:51 10° N visible
31 Oct 7.3 20:01:06 10° NW 20:03:10 13° NNW 20:05:19 10° NNE visible
31 Oct 7.7 21:46:00 10° NNW 21:46:04 10° N 21:46:04 10° N visible
01 Nov 7.2 19:18:07 10° NW 19:20:50 15° NNW 19:23:39 10° NNE visible
01 Nov 7.5 21:04:10 10° NNW 21:05:20 11° N 21:05:20 11° N visible
02 Nov 6.9 17:35:15 10° WNW 17:38:33 18° NNW 17:42:02 10° NNE visible
02 Nov 7.4 19:21:55 10° NNW 19:23:20 11° N 19:24:35 10° NNE visible
